| time (UTC) | temp F | wind direction | speed MPH | gust MPH | rain 1hr in | rain 24hr in | rain mn in | humidity % | barometer mb |
| 20260506184517 | 44 | 142 | 0.0 | 6.0 | 0.00 | 0.00 | 0.00 | 51 | 1012.2 |
| 20260506183013 | 45 | 86 | 1.0 | 9.0 | 0.00 | 0.00 | 0.00 | 49 | 1012.2 |
| 20260506181515 | 46 | 94 | 0.0 | 10.0 | 0.00 | 0.00 | 0.00 | 47 | 1012.0 |
| 20260506180011 | 46 | 146 | 4.0 | 8.0 | 0.00 | 0.00 | 0.00 | 46 | 1012.0 |
| 20260506174510 | 47 | 162 | 4.0 | 12.0 | 0.00 | 0.00 | 0.00 | 43 | 1011.9 |
| 20260506173009 | 48 | 101 | 3.0 | 10.0 | 0.00 | 0.00 | 0.00 | 35 | 1011.8 |
| 20260506171507 | 49 | 107 | 1.0 | 10.0 | 0.00 | 0.00 | 0.00 | 38 | 1011.8 |
| 20260506170006 | 49 | 167 | 5.0 | 17.0 | 0.00 | 0.00 | 0.00 | 40 | 1011.7 |
| 20260506164505 | 49 | 136 | 9.0 | 16.0 | 0.00 | 0.00 | 0.00 | 41 | 1011.5 |
| 20260506163008 | 50 | 180 | 6.0 | 14.0 | 0.00 | 0.00 | 0.00 | 39 | 1011.4 |
| 20260506161502 | 50 | 137 | 9.0 | 16.0 | 0.00 | 0.00 | 0.00 | 38 | 1011.4 |
| 20260506160005 | 51 | 151 | 5.0 | 14.0 | 0.00 | 0.00 | 0.00 | 38 | 1011.2 |
| 20260506154504 | 51 | 135 | 10.0 | 18.0 | 0.00 | 0.00 | 0.00 | 37 | 1011.2 |
| 20260506153002 | 51 | 132 | 11.0 | 17.0 | 0.00 | 0.00 | 0.00 | 37 | 1011.3 |
| 20260506151600 | 51 | 134 | 8.0 | 18.0 | 0.00 | 0.00 | 0.00 | 36 | 1011.3 |
| 20260506150100 | 52 | 142 | 9.0 | 19.0 | 0.00 | 0.00 | 0.00 | 37 | 1011.3 |
| 20260506144607 | 52 | 132 | 9.0 | 16.0 | 0.00 | 0.00 | 0.00 | 37 | 1011.3 |
| 20260506143059 | 53 | 215 | 6.0 | 8.0 | 0.00 | 0.00 | 0.00 | 29 | 1011.5 |
| 20260506141559 | 53 | 313 | 5.0 | 12.0 | 0.00 | 0.00 | 0.00 | 27 | 1011.4 |
| 20260506140056 | 53 | 275 | 8.0 | 11.0 | 0.00 | 0.00 | 0.00 | 26 | 1011.5 |
| 20260506134600 | 53 | 66 | 0.0 | 10.0 | 0.00 | 0.00 | 0.00 | 25 | 1011.5 |
| 20260506133058 | 53 | 180 | 3.0 | 9.0 | 0.00 | 0.00 | 0.00 | 26 | 1011.6 |
| 20260506131553 | 53 | 189 | 9.0 | 13.0 | 0.00 | 0.00 | 0.00 | 23 | 1011.7 |
| 20260506130052 | 52 | 134 | 7.0 | 11.0 | 0.00 | 0.00 | 0.00 | 22 | 1011.7 |
| 20260506124550 | 52 | 178 | 3.0 | 13.0 | 0.00 | 0.00 | 0.00 | 22 | 1011.7 |
| 20260506123050 | 52 | 134 | 4.0 | 11.0 | 0.00 | 0.00 | 0.00 | 22 | 1011.8 |
| 20260506121548 | 52 | 117 | 7.0 | 15.0 | 0.00 | 0.00 | 0.00 | 24 | 1011.9 |
| 20260506120048 | 52 | 166 | 5.0 | 14.0 | 0.00 | 0.00 | 0.00 | 23 | 1011.9 |
| 20260506114546 | 52 | 55 | 3.0 | 10.0 | 0.00 | 0.00 | 0.00 | 26 | 1012.0 |
| 20260506113045 | 51 | 315 | 5.0 | 11.0 | 0.00 | 0.00 | 0.00 | 27 | 1012.2 |
| 20260506111543 | 52 | 116 | 4.0 | 9.0 | 0.00 | 0.00 | 0.00 | 28 | 1012.3 |
| 20260506110045 | 51 | 186 | 4.0 | 7.0 | 0.00 | 0.00 | 0.00 | 29 | 1012.3 |
| 20260506104547 | 51 | 259 | 2.0 | 9.0 | 0.00 | 0.00 | 0.00 | 31 | 1012.3 |
| 20260506103041 | 50 | 252 | 7.0 | 11.0 | 0.00 | 0.00 | 0.00 | 28 | 1012.4 |
| 20260506101540 | 50 | 94 | 4.0 | 13.0 | 0.00 | 0.00 | 0.00 | 26 | 1012.5 |
| 20260506100037 | 50 | 173 | 5.0 | 11.0 | 0.00 | 0.00 | 0.00 | 26 | 1012.8 |
| 20260506094535 | 50 | 260 | 4.0 | 10.0 | 0.00 | 0.00 | 0.00 | 30 | 1012.8 |
| 20260506093038 | 50 | 328 | 2.0 | 11.0 | 0.00 | 0.00 | 0.00 | 31 | 1012.7 |
| 20260506091532 | 50 | 259 | 3.0 | 10.0 | 0.00 | 0.00 | 0.00 | 33 | 1012.7 |
| 20260506090029 | 49 | 225 | 3.0 | 9.0 | 0.00 | 0.00 | 0.00 | 33 | 1012.7 |
| 20260506084534 | 48 | 273 | 2.0 | 9.0 | 0.00 | 0.00 | 0.00 | 32 | 1012.7 |
| 20260506083025 | 48 | 334 | 4.0 | 8.0 | 0.00 | 0.00 | 0.00 | 34 | 1012.7 |
| 20260506081522 | 48 | 341 | 3.0 | 8.0 | 0.00 | 0.00 | 0.00 | 35 | 1012.6 |
| 20260506073016 | 46 | 324 | 1.0 | 8.0 | 0.00 | 0.00 | 0.00 | 47 | 1012.6 |
| 20260506071515 | 45 | 310 | 3.0 | 8.0 | 0.00 | 0.00 | 0.00 | 45 | 1012.6 |
| 20260506061502 | 42 | 355 | 2.0 | 5.0 | 0.00 | 0.00 | 0.00 | 61 | 1012.5 |
| 20260506044548 | 34 | 138 | 0.0 | 0.0 | 0.00 | 0.00 | 0.00 | 92 | 1012.1 |
| 20260506043040 | 31 | 138 | 0.0 | 0.0 | 0.00 | 0.00 | 0.00 | 92 | 1011.9 |
| 20260506041548 | 30 | 138 | 0.0 | 0.0 | 0.00 | 0.00 | 0.00 | 93 | 1011.8 |
| 20260506040039 | 29 | 138 | 0.0 | 0.0 | 0.00 | 0.00 | 0.00 | 92 | 1011.7 |
| 20260506034534 | 28 | 138 | 0.0 | 0.0 | 0.00 | 0.00 | 0.00 | 93 | 1011.5 |
| 20260506033031 | 27 | 138 | 0.0 | 0.0 | 0.00 | 0.00 | 0.00 | 92 | 1011.4 |
| 20260506031531 | 26 | 138 | 0.0 | 0.0 | 0.00 | 0.00 | 0.00 | 92 | 1011.2 |
| 20260506030028 | 27 | 138 | 0.0 | 0.0 | 0.00 | 0.00 | 0.00 | 92 | 1011.2 |
| 20260506024527 | 27 | 138 | 0.0 | 0.0 | 0.00 | 0.00 | 0.00 | 92 | 1011.0 |
| 20260506023022 | 27 | 138 | 0.0 | 0.0 | 0.00 | 0.00 | 0.00 | 92 | 1011.0 |
| 20260506021518 | 28 | 138 | 0.0 | 0.0 | 0.00 | 0.00 | 0.00 | 92 | 1010.9 |
| 20260506020016 | 28 | 138 | 0.0 | 0.0 | 0.00 | 0.00 | 0.00 | 92 | 1010.6 |
| 20260506014515 | 28 | 138 | 0.0 | 0.0 | 0.00 | 0.00 | 0.00 | 92 | 1010.6 |
| 20260506013014 | 29 | 138 | 0.0 | 0.0 | 0.00 | 0.00 | 0.00 | 92 | 1010.6 |
| 20260506011525 | 29 | 138 | 0.0 | 0.0 | 0.00 | 0.00 | 0.00 | 92 | 1010.5 |
| 20260506010005 | 29 | 138 | 0.0 | 0.0 | 0.00 | 0.00 | 0.00 | 92 | 1010.3 |
| 20260506004511 | 30 | 138 | 0.0 | 0.0 | 0.00 | 0.00 | 0.00 | 92 | 1010.2 |
| 20260506003002 | 30 | 138 | 0.0 | 0.0 | 0.00 | 0.00 | 0.00 | 92 | 1010.1 |
| 20260506001601 | 30 | 138 | 0.0 | 0.0 | 0.00 | 0.00 | 0.00 | 91 | 1010.0 |
| 20260506000100 | 30 | 138 | 0.0 | 0.0 | 0.00 | 0.00 | 0.00 | 91 | 1009.9 |
| 20260505234554 | 31 | 138 | 0.0 | 0.0 | 0.00 | 0.00 | 0.00 | 91 | 1009.8 |
| 20260505233051 | 32 | 138 | 0.0 | 0.0 | 0.00 | 0.00 | 0.00 | 91 | 1009.6 |
| 20260505231549 | 32 | 138 | 0.0 | 0.0 | 0.00 | 0.00 | 0.00 | 91 | 1009.6 |
| 20260505230046 | 33 | 138 | 0.0 | 2.0 | 0.00 | 0.00 | 0.00 | 90 | 1009.4 |
| 20260505224542 | 33 | 138 | 0.0 | 2.0 | 0.00 | 0.00 | 0.00 | 90 | 1009.5 |
| 20260505223039 | 34 | 138 | 0.0 | 0.0 | 0.00 | 0.00 | 0.00 | 90 | 1009.4 |
| 20260505221541 | 34 | 138 | 0.0 | 0.0 | 0.00 | 0.00 | 0.00 | 89 | 1009.2 |
| 20260505220051 | 34 | 138 | 0.0 | 0.0 | 0.00 | 0.00 | 0.00 | 88 | 1009.2 |
| 20260505214533 | 35 | 138 | 0.0 | 2.0 | 0.00 | 0.00 | 0.00 | 87 | 1009.2 |
| 20260505213031 | 37 | 138 | 0.0 | 0.0 | 0.00 | 0.00 | 0.00 | 86 | 1009.0 |
| 20260505211524 | 38 | 138 | 0.0 | 0.0 | 0.00 | 0.00 | 0.00 | 85 | 1008.9 |
| 20260505210020 | 39 | 161 | 1.0 | 5.0 | 0.00 | 0.00 | 0.00 | 84 | 1008.9 |
| 20260505204519 | 39 | 161 | 0.0 | 0.0 | 0.00 | 0.00 | 0.00 | 83 | 1008.7 |
| 20260505203016 | 40 | 161 | 0.0 | 0.0 | 0.00 | 0.00 | 0.00 | 82 | 1008.5 |
| 20260505201517 | 40 | 161 | 0.0 | 0.0 | 0.00 | 0.00 | 0.00 | 80 | 1008.3 |
| 20260505200010 | 42 | 113 | 0.0 | 0.0 | 0.00 | 0.00 | 0.00 | 77 | 1008.3 |
| 20260505194518 | 43 | 113 | 0.0 | 2.0 | 0.00 | 0.00 | 0.00 | 75 | 1008.1 |
| 20260505193009 | 43 | 83 | 1.0 | 2.0 | 0.00 | 0.00 | 0.00 | 74 | 1007.9 |
| 20260505191506 | 43 | 82 | 1.0 | 3.0 | 0.00 | 0.00 | 0.00 | 71 | 1007.8 |
| 20260505190005 | 44 | 83 | 1.0 | 3.0 | 0.00 | 0.00 | 0.00 | 70 | 1007.6 |